Wellsville, NY

8:32 AM EDT on October 16, 2019 (GMT -0400)
Wellsville Municipal-Tarantine

Weather History for KELZ - August, 2019

Change the Weather History Date:

Wednesday, August 28, 2019

  Actual Average (WUND) Record (WUND)
Temperature  
Mean Temperature 64 °F -  
Max Temperature 72 °F - - (-1)
Min Temperature 57 °F - - (-1)
Degree Days  
Heating Degree Days 2    
Growing Degree Days 14 (Base 50)    
Moisture  
Dew Point 62 °F    
Average Humidity 92    
Maximum Humidity 100    
Minimum Humidity 61    
Precipitation  
Precipitation 0.79 in - - ()
Sea Level Pressure  
Sea Level Pressure 29.91 in    
Wind  
Wind Speed 6 mph ()    
Max Wind Speed 12 mph    
Max Gust Speed 16 mph    
Visibility 6.2 miles    
Events Fog , Rain , Thunderstorm    
Averages and records for this station are not official NWS values.
T = Trace of Precipitation, MM = Missing Value Source: Averaged Metar Reports

Daily Weather History Graph

Daily Weather History Graph

Search for Another Location

Airport or City:

Astronomy

Aug. 28, 2019 Rise Set
Actual Time 6:33 AM EDT 7:52 PM EDT
Civil Twilight 6:03 AM EDT 8:21 PM EDT
Nautical Twilight 5:28 AM EDT 8:56 PM EDT
Astronomical Twilight 4:52 AM EDT 9:33 PM EDT
Moon 3:59 AM EDT (8/28) 7:05 PM EDT (8/28)
Length of Visible Light 14h 17m
Length of Day
13h 19m
Waning Crescent, 5% of the Moon is Illuminated
Aug 28
Waning Crescent
Aug 30
New
Sep 5
First Quarter
Sep 14
Full
Sep 21
Last Quarter

Hourly Weather History & Observations

Time (EDT) Temp. Dew Point Humidity Pressure Visibility Wind Dir Wind Speed Gust Speed Precip Events Conditions
12:56 AM 63.0 °F 62.1 °F 97% 29.95 in 10.0 mi South 6.9 mph - N/A   Overcast
1:56 AM 64.0 °F 63.0 °F 96% 29.92 in 6.0 mi South 8.1 mph 16.1 mph 0.00 in Rain Light Rain
2:05 AM 64.0 °F 63.0 °F 96% 29.94 in 3.0 mi South 9.2 mph - 0.00 in Rain Light Rain
2:27 AM 64.0 °F 63.0 °F 96% 29.93 in 10.0 mi South 11.5 mph - 0.00 in   Overcast
2:35 AM 64.0 °F 63.0 °F 96% 29.93 in 10.0 mi South 9.2 mph - 0.00 in   Overcast
2:37 AM 64.0 °F 63.0 °F 96% 29.93 in 10.0 mi South 9.2 mph - 0.00 in   Overcast
2:44 AM 64.0 °F 63.0 °F 96% 29.93 in 10.0 mi South 9.2 mph - 0.00 in   Overcast
2:56 AM 64.0 °F 63.0 °F 96% 29.91 in 10.0 mi SSW 11.5 mph - 0.00 in   Overcast
3:56 AM 64.0 °F 63.0 °F 96% 29.88 in 10.0 mi South 9.2 mph - N/A   Overcast
4:34 AM 64.0 °F 63.0 °F 96% 29.90 in 2.0 mi South 8.1 mph - 0.02 in Rain Light Rain
4:44 AM 64.0 °F 63.0 °F 96% 29.90 in 1.8 mi SSE 8.1 mph - 0.04 in Rain Light Rain
4:51 AM 64.4 °F 62.6 °F 94% 29.91 in 2.0 mi South 9.2 mph - 0.06 in Rain Rain
4:56 AM 64.0 °F 63.0 °F 96% 29.88 in 1.0 mi South 5.8 mph - 0.15 in Rain Heavy Rain
5:09 AM 63.0 °F 63.0 °F 100% 29.91 in 1.2 mi SSE 4.6 mph - 0.14 in Rain Heavy Rain
5:17 AM 63.0 °F 63.0 °F 100% 29.90 in 1.8 mi Calm Calm - 0.16 in Rain , Thunderstorm Thunderstorms and Rain
5:19 AM 64.0 °F 63.0 °F 96% 29.91 in 2.5 mi Calm Calm - 0.16 in Rain , Thunderstorm Thunderstorms and Rain
5:24 AM 64.0 °F 63.0 °F 96% 29.91 in 5.0 mi NNW 5.8 mph - 0.16 in Rain , Thunderstorm Light Thunderstorms and Rain
5:26 AM 64.0 °F 63.0 °F 96% 29.91 in 1.2 mi NNW 6.9 mph - 0.17 in Rain Light Rain
5:34 AM 63.0 °F 63.0 °F 100% 29.91 in 0.5 mi NNW 5.8 mph - 0.18 in Fog , Rain Rain
5:40 AM 63.0 °F 63.0 °F 100% 29.91 in 1.2 mi WNW 4.6 mph - 0.21 in Rain Rain
5:50 AM 62.6 °F 62.6 °F 100% 29.91 in 0.8 mi SW 3.5 mph - 0.28 in Rain Rain
5:56 AM 63.0 °F 63.0 °F 100% 29.89 in 0.8 mi South 3.5 mph - 0.31 in Rain Rain
6:13 AM 63.0 °F 63.0 °F 100% 29.92 in 2.0 mi South 5.8 mph - 0.01 in Rain Light Rain
6:20 AM 63.0 °F 63.0 °F 100% 29.92 in 4.0 mi SSW 5.8 mph - 0.01 in Rain Light Rain
6:56 AM 64.0 °F 63.0 °F 96% 29.90 in 8.0 mi SSW 3.5 mph - 0.02 in Rain Light Rain
7:10 AM 64.0 °F 63.0 °F 96% 29.92 in 2.0 mi SSW 5.8 mph - 0.00 in   Overcast
7:21 AM 64.0 °F 64.0 °F 100% 29.92 in 5.0 mi South 3.5 mph - 0.00 in Rain Light Rain
7:56 AM 64.0 °F 64.0 °F 100% 29.91 in 10.0 mi SW 4.6 mph - 0.01 in Rain Light Rain
8:40 AM 64.0 °F 64.0 °F 100% 29.92 in 10.0 mi SW 3.5 mph - 0.00 in Rain Light Rain
8:56 AM 64.9 °F 64.0 °F 97% 29.90 in 8.0 mi Calm Calm - 0.01 in Rain Light Rain
9:09 AM 64.9 °F 64.0 °F 97% 29.92 in 10.0 mi WSW 3.5 mph - 0.00 in Rain Light Rain
9:56 AM 64.9 °F 64.9 °F 100% 29.90 in 10.0 mi Calm Calm - 0.00 in   Overcast
10:08 AM 64.9 °F 64.0 °F 97% 29.94 in 3.0 mi WSW 4.6 mph - 0.01 in Rain Light Rain
10:12 AM 64.9 °F 64.0 °F 97% 29.94 in 1.8 mi WSW 4.6 mph - 0.03 in Rain Light Rain
10:31 AM 64.0 °F 60.1 °F 87% 29.93 in 2.0 mi West 4.6 mph - 0.09 in Rain Rain
10:56 AM 63.0 °F 61.0 °F 93% 29.91 in 2.5 mi Calm Calm - 0.13 in Rain Light Rain
11:04 AM 63.0 °F 61.0 °F 93% 29.93 in 10.0 mi SSW 4.6 mph - 0.00 in Rain Light Rain
11:56 AM 64.9 °F 61.0 °F 87% 29.91 in 10.0 mi Calm Calm - 0.00 in   Overcast
12:33 PM 64.9 °F 64.0 °F 97% 29.93 in 10.0 mi SE 3.5 mph - N/A   Overcast
12:56 PM 66.0 °F 63.0 °F 90% 29.90 in 10.0 mi Calm Calm - N/A   Overcast
1:56 PM 69.1 °F 64.9 °F 87% 29.89 in 10.0 mi Variable 3.5 mph - N/A   Mostly Cloudy
2:56 PM 70.0 °F 63.0 °F 78% 29.87 in 10.0 mi Variable 3.5 mph - N/A   Scattered Clouds
3:30 PM 66.9 °F 62.1 °F 84% 29.90 in 2.5 mi NNW 10.4 mph - 0.07 in Rain Light Rain
3:34 PM 64.9 °F 62.1 °F 90% 29.91 in 1.8 mi WNW 11.5 mph - 0.09 in Rain Rain
3:49 PM 66.9 °F 64.0 °F 90% 29.90 in 3.0 mi West 3.5 mph - 0.16 in Rain Light Rain
3:56 PM 69.1 °F 64.0 °F 84% 29.87 in 10.0 mi WNW 4.6 mph - 0.16 in   Mostly Cloudy
4:56 PM 70.0 °F 62.1 °F 76% 29.88 in 10.0 mi NW 6.9 mph - N/A   Scattered Clouds
5:56 PM 70.0 °F 57.0 °F 63% 29.90 in 10.0 mi NW 9.2 mph - N/A   Partly Cloudy
6:56 PM 66.9 °F 53.1 °F 61% 29.91 in 10.0 mi WNW 9.2 mph - N/A   Clear
7:56 PM 62.1 °F 52.0 °F 70% 29.92 in 10.0 mi WNW 5.8 mph - N/A   Clear
8:56 PM 60.1 °F 48.9 °F 67% 29.94 in 10.0 mi West 6.9 mph - N/A   Clear
9:56 PM 57.0 °F 50.0 °F 77% 29.95 in 10.0 mi WNW 6.9 mph - N/A   Clear
10:56 PM 57.9 °F 51.1 °F 78% 29.96 in 10.0 mi West 5.8 mph - N/A   Clear
11:56 PM 57.9 °F 52.0 °F 81% 29.95 in 10.0 mi Calm Calm - N/A   Clear